EW9168 Weather Reports


Display with metric or nautical units.
time (UTC)temp
F
wind
direction
speed
MPH
gust
MPH
rain 1hr
in
rain 24hr
in
rain mn
in
humidity
%
barometer
mb
20260510131038 54 113 3.0 8.0 0.00 0.06 0.00 90 1011.1
20260510130022 53 135 2.0 9.0 0.00 0.06 0.00 91 1011.2
20260510125022 52 135 2.0 5.0 0.00 0.06 0.00 92 1011.5
20260510124021 52 158 3.0 8.0 0.00 0.06 0.00 92 1011.4
20260510123022 52 158 3.0 8.0 0.00 0.06 0.00 93 1011.2
20260510122021 51 158 2.0 7.0 0.00 0.06 0.00 93 1011.4
20260510121018 51 158 1.0 5.0 0.00 0.06 0.00 93 1011.2
20260510120018 50 0.0 5.0 0.00 0.06 0.00 94 1011.0
20260510115021 50 113 3.0 7.0 0.00 0.06 0.00 94 1011.0
20260510114022 50 113 3.0 8.0 0.00 0.06 0.00 93 1010.8
20260510113022 50 113 3.0 8.0 0.00 0.06 0.00 93 1011.0
20260510112021 50 90 2.0 7.0 0.00 0.06 0.00 94 1010.7
20260510111022 50 113 1.0 4.0 0.00 0.06 0.00 94 1010.9
20260510110019 49 90 2.0 7.0 0.00 0.06 0.00 94 1010.7
20260510105019 49 135 2.0 8.0 0.00 0.06 0.00 94 1010.5
20260510104022 49 113 4.0 9.0 0.00 0.06 0.00 94 1010.6
20260510103022 49 113 4.0 8.0 0.00 0.06 0.00 95 1010.2
20260510102022 49 90 4.0 9.0 0.00 0.06 0.00 95 1010.1
20260510101025 49 90 2.0 8.0 0.00 0.06 0.00 95 1010.0
20260510100022 49 90 3.0 8.0 0.00 0.06 0.00 95 1009.8
20260510095018 49 113 4.0 11.0 0.00 0.06 0.00 95 1009.5
20260510094042 48 90 6.0 14.0 0.00 0.06 0.00 95 1009.4
20260510093021 48 113 6.0 13.0 0.00 0.06 0.00 95 1009.3
20260510092021 48 113 5.0 10.0 0.00 0.06 0.00 95 1009.0
20260510091043 48 113 4.0 8.0 0.00 0.06 0.00 94 1009.2
20260510090042 48 135 3.0 8.0 0.00 0.06 0.00 94 1009.5
20260510085021 48 113 4.0 8.0 0.00 0.06 0.00 94 1009.5
20260510084018 48 135 2.0 8.0 0.00 0.06 0.00 94 1009.8
20260510083021 48 135 2.0 5.0 0.00 0.06 0.00 94 1010.0
20260510082021 48 158 2.0 7.0 0.00 0.06 0.00 94 1010.1
20260510081022 48 113 3.0 9.0 0.00 0.06 0.00 94 1010.0
20260510080022 48 113 3.0 7.0 0.00 0.06 0.00 94 1009.8
20260510075022 47 113 2.0 8.0 0.00 0.06 0.00 95 1009.9
20260510074018 47 90 3.0 7.0 0.00 0.06 0.00 95 1009.7
20260510073018 47 90 3.0 8.0 0.00 0.06 0.00 94 1009.7
20260510072021 48 113 5.0 10.0 0.00 0.06 0.00 94 1009.7
20260510071022 48 135 4.0 10.0 0.00 0.06 0.00 94 1009.7
20260510070021 48 135 2.0 7.0 0.00 0.06 0.00 94 1010.1
20260510065042 48 113 4.0 10.0 0.00 0.06 0.00 94 1010.0
20260510064021 48 113 4.0 10.0 0.00 0.06 0.00 94 1010.0
20260510063018 47 113 5.0 10.0 0.00 0.06 0.00 94 1009.8
20260510062019 47 113 3.0 7.0 0.00 0.06 0.00 94 1010.1
20260510061022 47 113 4.0 11.0 0.00 0.06 0.00 94 1010.2
20260510060042 47 113 5.0 12.0 0.00 0.06 0.00 96 1010.2
20260510055022 46 113 5.0 11.0 0.00 0.06 0.00 95 1010.2
20260510054022 46 113 5.0 9.0 0.00 0.06 0.00 95 1010.4
20260510053025 46 90 4.0 9.0 0.00 0.06 0.00 95 1010.4
20260510052038 46 113 4.0 10.0 0.00 0.06 0.00 95 1010.3
20260510051019 46 113 5.0 11.0 0.00 0.06 0.00 95 1010.7
20260510050042 46 135 4.0 8.0 0.00 0.06 0.00 95 1010.8
20260510045042 46 135 5.0 11.0 0.00 0.06 0.00 95 1010.7
20260510044021 46 113 5.0 11.0 0.00 0.06 0.00 95 1010.5
20260510043020 46 135 5.0 11.0 0.00 0.06 0.00 95 1010.5
20260510042042 47 135 5.0 13.0 0.00 0.06 0.00 94 1010.6
20260510041018 47 135 5.0 12.0 0.00 0.06 0.00 94 1010.6
20260510040021 47 135 7.0 14.0 0.00 0.06 0.06 94 1010.5
20260510035021 47 135 6.0 12.0 0.00 0.06 0.06 94 1010.6
20260510034022 47 135 6.0 14.0 0.00 0.06 0.06 94 1010.5
20260510033021 47 113 7.0 14.0 0.00 0.06 0.06 93 1010.6
20260510032017 47 135 6.0 12.0 0.00 0.06 0.06 94 1010.7
20260510031017 46 113 6.0 13.0 0.00 0.06 0.06 94 1010.8
20260510030021 46 113 6.0 11.0 0.00 0.06 0.06 94 1010.9
20260510025021 46 135 5.0 11.0 0.00 0.06 0.06 93 1010.8
20260510024041 46 113 6.0 14.0 0.00 0.06 0.06 93 1011.0
20260510023022 46 135 6.0 11.0 0.00 0.06 0.06 93 1011.1
20260510022021 46 135 5.0 11.0 0.00 0.06 0.06 93 1011.2
20260510021017 46 113 6.0 13.0 0.00 0.06 0.06 93 1011.1
20260510020017 46 113 5.0 12.0 0.00 0.06 0.06 93 1011.2
20260510015041 46 113 5.0 11.0 0.00 0.06 0.06 93 1011.4
20260510014042 46 113 6.0 12.0 0.00 0.06 0.06 93 1011.3
20260510013021 46 113 5.0 11.0 0.00 0.06 0.06 93 1011.3
20260510012021 46 135 5.0 10.0 0.00 0.06 0.06 93 1011.3
20260510011021 46 113 6.0 11.0 0.00 0.06 0.06 93 1011.1
20260510010017 47 113 6.0 12.0 0.00 0.06 0.06 93 1011.2
20260510005021 47 135 5.0 10.0 0.00 0.06 0.06 92 1011.2
20260510004021 46 135 5.0 12.0 0.00 0.06 0.06 93 1010.9
20260510003021 46 113 5.0 10.0 0.00 0.06 0.06 93 1010.9
20260510002022 46 113 6.0 13.0 0.00 0.06 0.06 93 1010.8
20260510001019 46 113 5.0 10.0 0.00 0.06 0.06 93 1010.5
20260510000021 47 113 6.0 13.0 0.00 0.06 0.06 92 1010.4
20260509235017 47 113 3.0 8.0 0.00 0.06 0.06 92 1010.3
20260509234021 47 113 4.0 9.0 0.00 0.06 0.06 92 1010.0
20260509233021 47 113 4.0 11.0 0.00 0.06 0.06 92 1009.9
20260509232021 47 113 7.0 17.0 0.00 0.06 0.06 92 1009.9
20260509231021 46 113 7.0 15.0 0.00 0.06 0.06 92 1009.8
20260509230041 46 113 7.0 15.0 0.00 0.06 0.06 93 1009.8
20260509225022 46 113 8.0 18.0 0.00 0.06 0.06 93 1009.8
20260509224017 46 113 7.0 16.0 0.00 0.06 0.06 93 1009.9
20260509223021 47 113 5.0 11.0 0.00 0.06 0.06 94 1010.0
20260509222021 47 135 4.0 10.0 0.00 0.06 0.06 94 1010.1
20260509221021 47 113 3.0 9.0 0.00 0.06 0.06 94 1010.3
20260509220021 47 113 3.0 6.0 0.00 0.06 0.06 93 1010.4
20260509215022 47 113 5.0 11.0 0.00 0.06 0.06 92 1010.4
20260509214042 47 113 4.0 8.0 0.00 0.06 0.06 92 1010.6
20260509213017 47 180 2.0 8.0 0.00 0.06 0.06 92 1010.6
20260509212021 47 135 3.0 7.0 0.00 0.06 0.06 92 1010.5
20260509211021 47 180 3.0 7.0 0.00 0.06 0.06 93 1010.6
20260509210022 47 180 1.0 5.0 0.00 0.06 0.06 93 1010.5
20260509205021 47 135 2.0 8.0 0.00 0.06 0.06 92 1010.6
20260509204022 46 135 3.0 7.0 0.00 0.06 0.06 93 1010.6
20260509203037 47 113 3.0 7.0 0.00 0.06 0.06 92 1010.6
20260509202017 47 135 4.0 10.0 0.00 0.06 0.06 92 1010.7
20260509201022 47 135 5.0 10.0 0.00 0.06 0.06 92 1010.7
20260509200021 47 135 5.0 12.0 0.00 0.06 0.06 92 1010.7
20260509195021 46 135 6.0 12.0 0.00 0.06 0.06 92 1010.7
20260509194022 46 135 5.0 12.0 0.00 0.06 0.06 93 1011.0
20260509193021 46 113 6.0 10.0 0.01 0.06 0.06 93 1011.1
20260509192017 46 113 6.0 10.0 0.02 0.06 0.06 94 1011.0
20260509191017 46 113 6.0 11.0 0.02 0.06 0.06 93 1011.0
20260509190021 47 113 7.0 14.0 0.03 0.06 0.06 92 1011.2
20260509185021 47 113 7.0 13.0 0.04 0.06 0.06 92 1011.2
20260509184021 47 113 8.0 14.0 0.04 0.06 0.06 92 1011.4
20260509183042 48 113 6.0 12.0 0.03 0.05 0.05 92 1011.5
20260509182021 48 135 6.0 11.0 0.02 0.04 0.04 91 1011.5
20260509181017 48 135 5.0 11.0 0.02 0.04 0.04 90 1011.6
20260509180021 48 113 6.0 14.0 0.01 0.03 0.03 89 1011.7
20260509175021 49 135 4.0 10.0 0.00 0.02 0.02 89 1011.9
20260509174021 49 158 4.0 8.0 0.00 0.02 0.02 88 1011.9
20260509173021 49 135 4.0 11.0 0.00 0.02 0.02 89 1011.9
20260509172021 49 135 4.0 10.0 0.00 0.02 0.02 90 1012.1
20260509171021 48 113 4.0 11.0 0.00 0.02 0.02 90 1012.2
20260509170017 48 135 4.0 10.0 0.00 0.02 0.02 88 1012.2
20260509165021 48 135 4.0 10.0 0.01 0.02 0.02 88 1012.3
20260509164041 48 113 5.0 10.0 0.01 0.02 0.02 87 1012.4
20260509163021 48 135 4.0 9.0 0.02 0.02 0.02 87 1012.4
20260509162021 48 135 4.0 13.0 0.02 0.02 0.02 86 1012.5
20260509161021 48 113 3.0 8.0 0.02 0.02 0.02 84 1012.6
20260509160021 49 180 2.0 9.0 0.02 0.02 0.02 80 1012.9
20260509155037 49 180 1.0 5.0 0.01 0.01 0.01 81 1013.0
20260509154021 50 180 1.0 5.0 0.01 0.01 0.01 77 1013.0
20260509153021 50 180 3.0 7.0 0.00 0.00 0.00 73 1013.2
20260509152021 51 180 4.0 8.0 0.00 0.00 0.00 69 1013.1
20260509151021 52 203 3.0 10.0 0.00 0.00 0.00 61 1013.0
20260509150021 52 135 2.0 10.0 0.00 0.00 0.00 58 1012.9
20260509145017 52 135 3.0 7.0 0.00 0.00 0.00 55 1012.9
20260509144017 52 135 3.0 10.0 0.00 0.00 0.00 56 1012.8
20260509143021 52 180 1.0 6.0 0.00 0.00 0.00 57 1012.9
20260509142021 52 203 5.0 14.0 0.00 0.00 0.00 55 1012.9
20260509141121 52 180 3.0 10.0 0.00 0.00 0.00 57 1012.9
20260509140021 52 135 3.0 9.0 0.00 0.00 0.00 55 1013.0
20260509135021 52 135 4.0 9.0 0.00 0.00 0.00 58 1013.1
20260509134017 52 135 3.0 10.0 0.00 0.00 0.00 57 1013.0
20260509133017 52 135 3.0 11.0 0.00 0.00 0.00 58 1013.1
20260509132021 52 135 4.0 10.0 0.00 0.00 0.00 56 1013.1